Current weather by "City, St" or "zip code"  
 

Current Conditions: Miami, Opa Locka Airport, FL

Thunderstorm Light Rain


73.0 F

Last Updated on Oct 31 2020, 1:53 am EDT
Humidity: 87%
Wind Speed: E 11.5 mph
Barometer 30.02 in
Dewpoint: 69.1 F
Visibility: 10.00 mi
Precip: 00.04 in
Heat Index: NA
Wind Chill: NA
Current conditions at:

Miami, Opa Locka Airport, FL (KOPF)

Lat: 25.91 Lon: 80.28306

Local Radar Image active severe weather and emergency alerts image image weather storm and storm spotter reports image weather observation monitoring service image
Local
Radar
Active
Alerts
Storm Reports Obs
Monitoring

Sign-up For Email & Text Message Weather Alert Notification Services



Advertise Here

Observation History for Miami, Opa Locka Airport, FL


Time Wind
(mph)
Vis
(mi)
Weather Precip (in) Temperature (F) Relative
Humidity
Wind
Chill
(F)
Heat
Index
(F)
Pressure
Air Dwpt altimeter
(in)
sea level
(mb)
Rmks
1:53 am EDT E 11.5 10.00 Thunderstorm Light Rain 00.04 73.0 69.1 87% NA NA 30.02 1016.5
12:53 am EDT E 4.6 10.00 A Few Clouds 00.05 76.0 73.9 94% NA NA 30.01 1016.3
11:53 pm EDT N 8.1 8.00 Thunderstorm in Vicinity Rain 00.06 75.0 72.0 90% NA NA 30.01 1016.4
10:53 pm EDT NE 10.4 10.00 Light Rain 00.06 76.0 73.9 94% NA NA 30.02 1016.6
9:53 pm EDT N 6.9 10.00 Overcast 00.08 78.0 73.9 87% NA NA 30.01 1016.2
8:53 pm EDT NE 8.1 10.00 Partly Cloudy 00.01 77.0 71.1 82% NA NA 29.99 1015.7
7:53 pm EDT N 15.0 G 20.7 10.00 Thunderstorm in Vicinity -- 80.0 73.0 79% NA 84 29.98 1015.3
6:53 pm EDT SE 6.9 10.00 Mostly Cloudy -- 81.0 75.0 82% NA 87 29.95 1014.3
5:53 pm EDT N 0.0 10.00 Overcast -- 82.0 73.9 77% NA 88 29.93 1013.7
4:53 pm EDT NE 4.6 10.00 Mostly Cloudy 00.20 84.0 73.9 72% NA 91 29.93 1013.5
3:53 pm EDT S 3.5 10.00 Light Rain 00.24 82.0 77.0 85% NA 90 29.92 1013.3
2:53 pm EDT E 6.9 8.00 Heavy Rain 00.17 79.0 73.0 82% NA NA 29.93 1013.6
1:53 pm EDT E 4.6 10.00 Mostly Cloudy -- 86.0 73.9 67% NA 94 29.93 1013.6
12:53 pm EDT SE 8.1 10.00 Overcast -- 85.0 73.0 68% NA 92 29.95 1014.2
11:53 am EDT S 3.5 10.00 A Few Clouds -- 87.0 72.0 61% NA 93 29.96 1014.7
10:53 am EDT SW 3.5 10.00 Partly Cloudy -- 85.0 73.9 70% NA 93 29.97 1014.8
9:53 am EDT S 5.8 10.00 Partly Cloudy -- 84.0 75.0 74% NA 92 29.97 1014.9
8:53 am EDT SW 5.8 10.00 Fair -- 80.0 75.9 87% NA 85 29.97 1014.8
7:53 am EDT N 0.0 10.00 Fair -- 76.0 73.9 94% NA NA 29.94 1014.1
6:53 am EDT SW 3.5 10.00 Fair -- 76.0 73.9 94% NA NA 29.94 1013.8
5:53 am EDT N 0.0 10.00 Fair -- 77.0 73.9 90% NA NA 29.92 1013.4
4:53 am EDT N 0.0 10.00 Fair -- 76.0 73.9 94% NA NA 29.92 1013.2
3:53 am EDT SW 3.5 10.00 A Few Clouds -- 78.0 75.0 90% NA NA 29.93 1013.4
2:53 am EDT SW 4.6 10.00 A Few Clouds -- 78.0 75.0 90% NA NA 29.93 1013.7

Regional Weather Observation


Fort Lauderdale/Hollywood International Airport, FL (KFLL)

Thunderstorm in Vicinity
80.0 F

Fort Lauderdale, Fort Lauderdale Executive Airport, FL (KFXE)

Mostly Cloudy
81.0 F

Pompano Beach, Pompano Beach Airpark, FL (KPMP)

Overcast
80.0 F

Miami, Opa Locka Airport, FL (KOPF)

Thunderstorm Light Rain
73.0 F

Miami, Miami International Airport, FL (KMIA)

Thunderstorm
78.0 F

Miami, Kendall-Tamiami Executive Airport, FL (KTMB)

Mostly Cloudy
78.0 F